Torna al catalogo

COSMOS 2251 DEB

AttivoLEO
NORAD 34018·DEBRIS·🇷🇺 Russia

Lanciato Jun 16, 1993 da Plesetsk Cosmodrome

Loading…

Prossimi Passaggi (prossime 24 ore)

TLE

AggiornatoSource: Space-Track

Epoca: Sep 14, 2026, 05:37 UTC

1 34018U 93036HD  26257.23412922  .00000282  00000-0  22095-3 0  9997
2 34018  73.8798 345.0677 0265978 330.0533  57.4913 13.81362014884611

Traccia COSMOS 2251 DEB in tempo reale con AllMySat

Download on the App Store